Flag for Russia Weather past 2 weeks in Novorossiysk, Russia

Now
54 °F

Passing clouds.


Feels Like: 49 °F
Forecast: 51 / 68 °F
Wind: 15 mph from East

Location: Anapa / Vitiazevo

Current Time: Sep 20, 2014 at 6:06:04 AM

Latest Report: Sep 20, 2014 at 5:00 AM


Visibility: N/A

Pressure: 30.01 "Hg

Humidity: 88%

Dew point: 50 °F

Location of NovorossiyskLocation

Historic Weather in Novorossiysk — Graph

°F

Novorossiysk temperature yesterday

Maximum temperature yesterday: 64 °F (at 11:30 AM)
Minimum temperature yesterday: 55 °F (at 11:00 PM)
Average temperature yesterday: 60 °F

Past Weeks' High & Low Weather Summary

 TemperatureHumidityPressure
High88 °F (Sep 5, 4:00 PM)100% (Sep 11, 7:00 AM)30.07 "Hg (Sep 11, 7:00 AM)
Low54 °F (Sep 14, 4:00 AM)20% (Sep 5, 6:30 PM)29.68 "Hg (Sep 6, 5:30 PM)
Average69 °F64%29.91 "Hg
* Reported Sep 5 5:00 AM — Sep 20 5:00 AM, Novorossiysk, Weather by CustomWeather, © 2014

Note: Actual official high and low records may vary slightly from our data, if they occured in-between our weather recording intervals... More about our weather records

Advertising

Novorossiysk weather history for previous 24 hours

 ConditionsComfort  
Time TempWeatherWind HumidityBarometerVisibility
5:00 AM
Sep 20
54 °FPassing clouds.15 mph88%30.01 "HgN/A
4:00 AM54 °FPassing clouds.17 mph94%30.01 "HgN/A
3:00 AM55 °FPassing clouds.13 mph88%30.04 "HgN/A
2:00 AM55 °FPassing clouds.13 mph88%30.04 "HgN/A
1:00 AM55 °FPassing clouds.17 mph88%30.04 "HgN/A
12:00 AM55 °FPassing clouds.17 mph94%30.04 "HgN/A
11:00 PM
Sep 19
55 °FPassing clouds.20 mph94%30.07 "HgN/A
10:30 PM57 °FPassing clouds.22 mph88%30.07 "HgN/A
10:00 PM57 °FPassing clouds.20 mph88%30.07 "HgN/A
9:30 PM57 °FPassing clouds.22 mph88%30.07 "HgN/A
9:00 PM57 °FPartly cloudy.20 mph88%30.07 "HgN/A
8:30 PM57 °FBroken clouds.20 mph88%30.07 "HgN/A
8:00 PM59 °FBroken clouds.20 mph77%30.07 "HgN/A
7:30 PM59 °FPartly sunny.17 mph77%30.04 "HgN/A
7:00 PM61 °FPartly sunny.22 mph72%30.04 "HgN/A
6:30 PM61 °FPartly sunny.20 mph72%30.04 "HgN/A
6:00 PM61 °FPartly sunny.22 mph72%30.04 "HgN/A
5:30 PM63 °FPartly sunny.22 mph68%30.04 "HgN/A
5:00 PM63 °FPartly sunny.20 mph73%30.04 "HgN/A
4:30 PM61 °FPartly sunny.22 mph72%30.04 "HgN/A
4:00 PM61 °FMore clouds than sun.22 mph77%30.04 "HgN/A
3:30 PM61 °FBroken clouds.20 mph77%30.04 "HgN/A
3:00 PM61 °FBroken clouds.22 mph72%30.04 "HgN/A
2:30 PM63 °FBroken clouds.22 mph68%30.04 "HgN/A
2:00 PM61 °FBroken clouds.24 mph72%30.04 "HgN/A
1:30 PM63 °FBroken clouds.24 mph73%30.04 "HgN/A
1:00 PM61 °FBroken clouds.22 mph72%30.04 "HgN/A
12:30 PM63 °FPartly sunny.24 mph68%30.04 "HgN/A
12:00 PM61 °FBroken clouds.24 mph72%30.04 "HgN/A
11:30 AM64 °FScattered clouds.26 mph60%30.04 "HgN/A
11:00 AM63 °FScattered clouds.29 mph64%30.04 "HgN/A
10:30 AM63 °FScattered clouds.26 mph64%30.01 "HgN/A
10:00 AM61 °FScattered clouds.26 mph68%30.01 "HgN/A
9:30 AM61 °FPartly sunny.22 mph68%30.01 "HgN/A
9:00 AM59 °FPartly sunny.20 mph72%30.04 "HgN/A
8:30 AM59 °FPartly sunny.20 mph72%30.04 "HgN/A
8:00 AM59 °FPassing clouds.10 mph68%30.01 "HgN/A
7:30 AM57 °FPartly cloudy.3 mph67%30.01 "HgN/A
7:00 AM57 °FPartly cloudy.6 mph63%30.01 "HgN/A
6:30 AM57 °FClear.6 mph63%30.01 "Hg10 mi
6:00 AM57 °FPassing clouds.6 mph63%30.01 "HgN/A
Weather by CustomWeather, © 2014

See weather overviewHow to use our weather pages